User: anonymous   Login
Location: Unspecified
(0.0000°N, 0.0000°E)
Time: 23:02:53
(UTC+00:00)
Language:

STARLINK-35204 - Orbit

View from above orbital plane
View from above orbital plane
View from above satellite
View from above satellite

Ground track
Ground track

The orbit is defined by the following mean orbital elements,

1 65694U          26145.63918370 +.00000000 +00000-0 +47587-2 0 00001
2 65694  53.1592 348.3381 0003336  96.8535 263.2845 15.30080033    01
Epoch (UTC): 25 May 2026 15:20:25
Eccentricity: 0.0003336
inclination: 53.1592°
perigee height: 473 km
apogee height: 478 km
right ascension of ascending node: 348.3381°
argument of perigee: 96.8535°
revolutions per day: 15.30080033
mean anomaly at epoch: 263.2845°

The dashed part of the orbit path shows where the satellite is in the earth's shadow,  

DLR